User: anonymous   Login
Location: Caltech
(34.1382°N, 118.1253°W)
Time: 18:22:30
(UTC-08:00)
Language:

BREEZE M DEB (TANK) - Orbit

View from above orbital plane
View from above orbital plane
View from above satellite
View from above satellite

Ground track
Ground track

The orbit data is extracted from the following two-line orbital elements,

1 33437U 08057B   14332.20158685  .00002319  00000-0  69274-3 0  1299
2 33437 049.5765 321.0778 5005427 120.0590 350.3077 05.56300375121762
Epoch (UTC): 28 November 2014 04:50:17
Eccentricity: 0.5005427
inclination: 49.5765°
perigee height: 342 km
apogee height: 13810 km
right ascension of ascending node: 321.0778°
argument of perigee: 120.0590°
revolutions per day: 5.56300375
mean anomaly at epoch: 350.3077°
orbit number at epoch: 12176

The dashed part of the orbit path shows where the satellite is in the earth's shadow,  

DLR